Time,TemperatureF,DewpointF,PressureIn,WindDirection,WindDirectionDegrees,WindSpeedMPH,WindSpeedGustMPH,Humidity,HourlyPrecipIn,Conditions,Clouds,dailyrainin,SoftwareType,DateUTC
2013-07-06 00:04:00,61.3,46.9,29.68,WNW,292,0.0,1.1,59,0.00,,,0.00,WUHU21623XXSP,2013-07-06 07:04:00,
2013-07-06 00:09:00,61.3,46.5,29.68,SW,225,0.0,0.0,58,0.00,,,0.00,WUHU21623XXSP,2013-07-06 07:09:00,
2013-07-06 00:14:00,61.2,47.3,29.68,SSW,202,0.0,0.0,60,0.00,,,0.00,WUHU21623XXSP,2013-07-06 07:14:00,
2013-07-06 00:19:00,61.3,47.4,29.68,West,270,0.0,0.0,60,0.00,,,0.00,WUHU21623XXSP,2013-07-06 07:19:00,
2013-07-06 00:24:00,61.2,47.3,29.68,SW,225,0.0,0.0,60,0.00,,,0.00,WUHU21623XXSP,2013-07-06 07:24:00,
2013-07-06 00:29:00,61.0,47.5,29.68,WSW,247,0.0,0.0,61,0.00,,,0.00,WUHU21623XXSP,2013-07-06 07:29:00,
2013-07-06 00:34:00,61.0,47.7,29.68,South,180,0.0,0.0,61,0.00,,,0.00,WUHU21623XXSP,2013-07-06 07:34:00,
2013-07-06 00:39:00,61.0,47.5,29.68,SW,225,0.0,0.0,61,0.00,,,0.00,WUHU21623XXSP,2013-07-06 07:39:00,
2013-07-06 00:44:00,61.0,47.5,29.68,SW,225,0.0,0.0,61,0.00,,,0.00,WUHU21623XXSP,2013-07-06 07:44:00,
2013-07-06 00:49:00,61.0,47.9,29.68,SW,225,0.0,0.0,62,0.00,,,0.00,WUHU21623XXSP,2013-07-06 07:49:00,
2013-07-06 00:54:00,60.8,47.8,29.68,SW,225,0.0,0.0,62,0.00,,,0.00,WUHU21623XXSP,2013-07-06 07:54:00,
2013-07-06 00:59:00,60.6,47.2,29.68,WSW,247,0.0,0.0,61,0.00,,,0.00,WUHU21623XXSP,2013-07-06 07:59:00,
2013-07-06 01:04:00,60.6,47.2,29.68,WSW,247,0.0,0.0,61,0.00,,,0.00,WUHU21623XXSP,2013-07-06 08:04:00,
2013-07-06 01:15:00,60.6,48.4,29.68,NNE,22,0.0,0.0,64,0.00,,,0.00,WUHU21623XXSP,2013-07-06 08:15:00,
2013-07-06 01:20:00,60.4,48.7,29.68,NNE,22,0.0,0.0,65,0.00,,,0.00,WUHU21623XXSP,2013-07-06 08:20:00,
2013-07-06 01:25:00,60.4,49.1,29.68,NNE,22,0.0,0.0,66,0.00,,,0.00,WUHU21623XXSP,2013-07-06 08:25:00,
2013-07-06 01:30:00,60.4,49.1,29.68,NNE,22,0.0,0.0,66,0.00,,,0.00,WUHU21623XXSP,2013-07-06 08:30:00,
2013-07-06 01:35:00,60.1,48.7,29.67,SE,135,0.0,0.0,66,0.00,,,0.00,WUHU21623XXSP,2013-07-06 08:35:00,
2013-07-06 01:40:00,60.1,49.1,29.68,East,90,0.0,0.0,67,0.00,,,0.00,WUHU21623XXSP,2013-07-06 08:40:00,
2013-07-06 01:45:00,59.9,49.4,29.68,NE,45,0.0,0.0,68,0.00,,,0.00,WUHU21623XXSP,2013-07-06 08:45:00,
2013-07-06 01:50:00,59.9,50.2,29.68,NE,45,0.0,0.0,70,0.00,,,0.00,WUHU21623XXSP,2013-07-06 08:50:00,
2013-07-06 01:55:00,59.7,50.0,29.68,NE,45,0.0,0.0,70,0.00,,,0.00,WUHU21623XXSP,2013-07-06 08:55:00,
2013-07-06 02:00:00,59.7,50.0,29.68,NE,45,0.0,0.0,70,0.00,,,0.00,WUHU21623XXSP,2013-07-06 09:00:00,
2013-07-06 02:05:00,59.7,50.0,29.68,NE,45,0.0,0.0,70,0.00,,,0.00,WUHU21623XXSP,2013-07-06 09:05:00,
2013-07-06 02:15:00,59.5,50.5,29.68,NE,45,0.0,0.0,72,0.00,,,0.00,WUHU21623XXSP,2013-07-06 09:15:00,
2013-07-06 02:20:00,59.4,50.4,29.68,SSE,157,0.0,0.0,72,0.00,,,0.00,WUHU21623XXSP,2013-07-06 09:20:00,
2013-07-06 02:25:00,59.4,50.4,29.68,SSE,157,0.0,0.0,72,0.00,,,0.00,WUHU21623XXSP,2013-07-06 09:25:00,
2013-07-06 02:30:00,59.4,51.1,29.68,ESE,112,0.0,0.0,74,0.00,,,0.00,WUHU21623XXSP,2013-07-06 09:30:00,
2013-07-06 02:35:00,59.4,51.4,29.68,East,90,0.0,0.0,75,0.00,,,0.00,WUHU21623XXSP,2013-07-06 09:35:00,
2013-07-06 02:40:00,59.4,51.4,29.68,SE,135,0.0,0.0,75,0.00,,,0.00,WUHU21623XXSP,2013-07-06 09:40:00,
2013-07-06 02:45:00,59.5,52.7,29.68,East,90,0.0,0.0,78,0.00,,,0.00,WUHU21623XXSP,2013-07-06 09:45:00,
2013-07-06 02:50:00,59.4,53.2,29.68,ENE,67,0.0,0.0,80,0.00,,,0.00,WUHU21623XXSP,2013-07-06 09:50:00,
2013-07-06 02:55:00,59.5,53.4,29.68,ENE,67,0.0,0.0,81,0.00,,,0.00,WUHU21623XXSP,2013-07-06 09:55:00,
2013-07-06 03:00:00,59.4,53.9,29.68,ENE,67,0.0,0.0,82,0.00,,,0.00,WUHU21623XXSP,2013-07-06 10:00:00,
2013-07-06 03:05:00,59.4,53.9,29.68,ENE,67,0.0,0.0,82,0.00,,,0.00,WUHU21623XXSP,2013-07-06 10:05:00,
2013-07-06 03:15:00,59.4,54.4,29.68,SE,135,0.0,0.0,83,0.00,,,0.00,WUHU21623XXSP,2013-07-06 10:15:00,
2013-07-06 03:20:00,59.4,53.9,29.69,ENE,67,0.0,0.0,82,0.00,,,0.00,WUHU21623XXSP,2013-07-06 10:20:00,
2013-07-06 03:25:00,59.2,53.7,29.69,ENE,67,0.0,0.0,82,0.00,,,0.00,WUHU21623XXSP,2013-07-06 10:25:00,
2013-07-06 03:30:00,59.2,54.4,29.68,ENE,67,0.0,0.0,84,0.00,,,0.00,WUHU21623XXSP,2013-07-06 10:30:00,
2013-07-06 03:35:00,59.2,54.0,29.68,ENE,67,0.0,0.0,83,0.00,,,0.00,WUHU21623XXSP,2013-07-06 10:35:00,
2013-07-06 03:40:00,59.2,54.4,29.68,ENE,67,0.0,0.0,84,0.00,,,0.00,WUHU21623XXSP,2013-07-06 10:40:00,
2013-07-06 03:45:00,59.2,54.0,29.68,ENE,67,0.0,0.0,83,0.00,,,0.00,WUHU21623XXSP,2013-07-06 10:45:00,
2013-07-06 03:50:00,59.2,54.0,29.68,SSW,202,0.0,0.0,83,0.00,,,0.00,WUHU21623XXSP,2013-07-06 10:50:00,
2013-07-06 03:55:00,59.0,54.2,29.68,NE,45,0.0,0.0,84,0.00,,,0.00,WUHU21623XXSP,2013-07-06 10:55:00,
2013-07-06 04:00:00,59.0,54.2,29.68,ENE,67,0.0,0.0,83,0.00,,,0.00,WUHU21623XXSP,2013-07-06 11:00:00,
2013-07-06 04:05:00,59.0,54.2,29.68,ENE,67,0.0,0.0,83,0.00,,,0.00,WUHU21623XXSP,2013-07-06 11:05:00,
2013-07-06 04:15:00,59.0,53.9,29.69,SE,135,0.0,0.0,83,0.00,,,0.00,WUHU21623XXSP,2013-07-06 11:15:00,
2013-07-06 04:20:00,58.8,54.0,29.69,SE,135,0.0,0.0,84,0.00,,,0.00,WUHU21623XXSP,2013-07-06 11:20:00,
2013-07-06 04:25:00,58.8,53.7,29.69,SE,135,0.0,0.0,82,0.00,,,0.00,WUHU21623XXSP,2013-07-06 11:25:00,
2013-07-06 04:30:00,58.8,53.0,29.69,WNW,292,0.0,0.0,81,0.00,,,0.00,WUHU21623XXSP,2013-07-06 11:30:00,
2013-07-06 04:35:00,58.6,53.0,29.69,NW,315,0.0,0.0,83,0.00,,,0.00,WUHU21623XXSP,2013-07-06 11:35:00,
2013-07-06 04:40:00,58.6,53.3,29.69,NNE,22,0.0,0.0,83,0.00,,,0.00,WUHU21623XXSP,2013-07-06 11:40:00,
2013-07-06 04:45:00,58.6,53.2,29.69,NE,45,0.0,0.0,82,0.00,,,0.00,WUHU21623XXSP,2013-07-06 11:45:00,
2013-07-06 04:50:00,58.6,53.2,29.69,ENE,67,0.0,0.0,82,0.00,,,0.00,WUHU21623XXSP,2013-07-06 11:50:00,
2013-07-06 04:55:00,58.6,53.5,29.69,ENE,67,0.0,0.0,83,0.00,,,0.00,WUHU21623XXSP,2013-07-06 11:55:00,
2013-07-06 05:00:00,58.6,53.5,29.69,ENE,67,0.0,0.0,83,0.00,,,0.00,WUHU21623XXSP,2013-07-06 12:00:00,
2013-07-06 05:05:00,58.6,53.5,29.69,ENE,67,0.0,0.0,83,0.00,,,0.00,WUHU21623XXSP,2013-07-06 12:05:00,
2013-07-06 05:12:00,58.3,53.5,29.69,NE,45,0.0,0.0,84,0.00,,,0.00,WUHU21623XXSP,2013-07-06 12:12:00,
2013-07-06 05:17:00,58.3,53.5,29.70,NE,45,0.0,0.0,84,0.00,,,0.00,WUHU21623XXSP,2013-07-06 12:17:00,
2013-07-06 05:22:00,58.3,53.5,29.70,ENE,67,0.0,0.0,84,0.00,,,0.00,WUHU21623XXSP,2013-07-06 12:22:00,
2013-07-06 05:27:00,58.1,53.9,29.70,NE,45,0.0,0.0,86,0.00,,,0.00,WUHU21623XXSP,2013-07-06 12:27:00,
2013-07-06 05:32:00,57.9,53.7,29.70,NNE,22,0.0,0.0,86,0.00,,,0.00,WUHU21623XXSP,2013-07-06 12:32:00,
2013-07-06 05:37:00,57.7,53.6,29.70,SSW,202,0.0,0.0,86,0.00,,,0.00,WUHU21623XXSP,2013-07-06 12:37:00,
2013-07-06 05:42:00,57.7,53.2,29.70,WNW,292,0.0,0.0,85,0.00,,,0.00,WUHU21623XXSP,2013-07-06 12:42:00,
2013-07-06 05:47:00,57.7,53.2,29.70,WNW,292,0.0,0.0,85,0.00,,,0.00,WUHU21623XXSP,2013-07-06 12:47:00,
2013-07-06 05:52:00,57.7,53.2,29.71,WNW,292,0.0,0.0,85,0.00,,,0.00,WUHU21623XXSP,2013-07-06 12:52:00,
2013-07-06 05:57:00,57.7,52.9,29.71,WNW,292,0.0,0.0,84,0.00,,,0.00,WUHU21623XXSP,2013-07-06 12:57:00,
2013-07-06 06:02:00,57.7,52.9,29.71,WNW,292,0.0,0.0,84,0.00,,,0.00,WUHU21623XXSP,2013-07-06 13:02:00,
2013-07-06 06:15:00,57.7,53.2,29.70,WNW,292,0.0,0.0,85,0.00,,,0.00,WUHU21623XXSP,2013-07-06 13:15:00,
2013-07-06 06:20:00,57.7,53.2,29.70,SW,225,0.0,0.0,85,0.00,,,0.00,WUHU21623XXSP,2013-07-06 13:20:00,
2013-07-06 06:25:00,57.7,53.2,29.70,WNW,292,0.0,0.0,85,0.00,,,0.00,WUHU21623XXSP,2013-07-06 13:25:00,
2013-07-06 06:30:00,57.7,53.2,29.71,SW,225,0.0,0.0,85,0.00,,,0.00,WUHU21623XXSP,2013-07-06 13:30:00,
2013-07-06 06:35:00,57.7,53.6,29.70,SW,225,0.0,0.0,86,0.00,,,0.00,WUHU21623XXSP,2013-07-06 13:35:00,
2013-07-06 06:40:00,57.9,53.4,29.71,SW,225,0.0,0.0,85,0.00,,,0.00,WUHU21623XXSP,2013-07-06 13:40:00,
2013-07-06 06:45:00,57.9,53.4,29.71,West,270,0.0,0.0,85,0.00,,,0.00,WUHU21623XXSP,2013-07-06 13:45:00,
2013-07-06 06:50:00,57.9,53.1,29.71,WNW,292,0.9,0.9,84,0.00,,,0.00,WUHU21623XXSP,2013-07-06 13:50:00,
2013-07-06 06:55:00,57.9,53.4,29.71,WNW,292,0.0,0.9,85,0.00,,,0.00,WUHU21623XXSP,2013-07-06 13:55:00,
2013-07-06 07:00:00,57.9,53.7,29.71,WNW,292,0.0,0.0,86,0.00,,,0.00,WUHU21623XXSP,2013-07-06 14:00:00,
2013-07-06 07:05:00,57.9,53.7,29.71,WNW,292,0.0,0.0,86,0.00,,,0.00,WUHU21623XXSP,2013-07-06 14:05:00,
2013-07-06 07:10:00,57.7,53.6,29.71,NW,315,0.0,0.0,86,0.00,,,0.00,WUHU21623XXSP,2013-07-06 14:10:00,
2013-07-06 07:15:00,57.9,53.7,29.71,West,270,0.0,0.0,86,0.00,,,0.00,WUHU21623XXSP,2013-07-06 14:15:00,
2013-07-06 07:20:00,57.9,53.7,29.71,West,270,0.0,0.0,86,0.00,,,0.00,WUHU21623XXSP,2013-07-06 14:20:00,
2013-07-06 07:25:00,57.9,53.7,29.72,WNW,292,0.0,0.0,86,0.00,,,0.00,WUHU21623XXSP,2013-07-06 14:25:00,
2013-07-06 07:30:00,58.1,53.9,29.72,WNW,292,0.0,0.0,86,0.00,,,0.00,WUHU21623XXSP,2013-07-06 14:30:00,
2013-07-06 07:35:00,58.1,53.9,29.72,WNW,292,0.0,0.0,86,0.00,,,0.00,WUHU21623XXSP,2013-07-06 14:35:00,
2013-07-06 07:40:00,58.1,54.2,29.72,WSW,247,0.0,0.0,87,0.00,,,0.00,WUHU21623XXSP,2013-07-06 14:40:00,
2013-07-06 07:45:00,58.3,54.1,29.72,East,90,0.0,0.0,86,0.00,,,0.00,WUHU21623XXSP,2013-07-06 14:45:00,
2013-07-06 07:50:00,58.5,54.6,29.72,WNW,292,0.0,0.0,87,0.00,,,0.00,WUHU21623XXSP,2013-07-06 14:50:00,
2013-07-06 07:55:00,58.6,54.5,29.72,West,270,0.0,1.1,86,0.00,,,0.00,WUHU21623XXSP,2013-07-06 14:55:00,
2013-07-06 08:00:00,58.8,55.0,29.72,West,270,1.1,1.3,87,0.00,,,0.00,WUHU21623XXSP,2013-07-06 15:00:00,
2013-07-06 08:05:00,58.8,54.6,29.72,WNW,292,0.9,1.3,86,0.00,,,0.00,WUHU21623XXSP,2013-07-06 15:05:00,
2013-07-06 08:10:00,58.8,54.6,29.72,NW,315,0.0,0.9,86,0.00,,,0.00,WUHU21623XXSP,2013-07-06 15:10:00,
2013-07-06 08:15:00,59.2,54.7,29.73,WSW,247,0.0,0.9,85,0.00,,,0.00,WUHU21623XXSP,2013-07-06 15:15:00,
2013-07-06 08:20:00,59.4,54.9,29.73,West,270,0.0,0.9,85,0.00,,,0.00,WUHU21623XXSP,2013-07-06 15:20:00,
2013-07-06 08:25:00,59.5,55.0,29.73,SSW,202,2.2,2.2,85,0.00,,,0.00,WUHU21623XXSP,2013-07-06 15:25:00,
2013-07-06 08:30:00,59.7,55.2,29.73,South,180,0.0,2.5,85,0.00,,,0.00,WUHU21623XXSP,2013-07-06 15:30:00,
2013-07-06 08:35:00,59.9,55.1,29.73,SSW,202,0.0,2.5,84,0.00,,,0.00,WUHU21623XXSP,2013-07-06 15:35:00,
2013-07-06 08:40:00,60.1,55.3,29.73,SSE,157,0.0,0.0,84,0.00,,,0.00,WUHU21623XXSP,2013-07-06 15:40:00,
2013-07-06 08:45:00,60.1,55.3,29.74,SSW,202,2.7,2.7,84,0.00,,,0.00,WUHU21623XXSP,2013-07-06 15:45:00,
2013-07-06 08:50:00,60.1,54.9,29.74,WSW,247,0.0,2.7,83,0.00,,,0.00,WUHU21623XXSP,2013-07-06 15:50:00,
2013-07-06 08:55:00,60.4,55.3,29.74,ESE,112,2.5,2.5,83,0.00,,,0.00,WUHU21623XXSP,2013-07-06 15:55:00,
2013-07-06 09:00:00,60.4,55.0,29.74,SW,225,0.0,2.7,82,0.00,,,0.00,WUHU21623XXSP,2013-07-06 16:00:00,
2013-07-06 09:05:00,60.6,55.1,29.74,SW,225,2.0,2.7,82,0.00,,,0.00,WUHU21623XXSP,2013-07-06 16:05:00,
2013-07-06 09:10:00,60.6,55.1,29.74,SE,135,0.0,2.0,82,0.00,,,0.00,WUHU21623XXSP,2013-07-06 16:10:00,
2013-07-06 09:15:00,61.0,55.5,29.74,WSW,247,1.6,2.0,82,0.00,,,0.00,WUHU21623XXSP,2013-07-06 16:15:00,
2013-07-06 09:20:00,61.2,55.7,29.74,WNW,292,0.0,2.0,82,0.00,,,0.00,WUHU21623XXSP,2013-07-06 16:20:00,
2013-07-06 09:25:00,61.2,55.7,29.74,SW,225,3.1,3.1,82,0.00,,,0.00,WUHU21623XXSP,2013-07-06 16:25:00,
2013-07-06 09:30:00,61.3,55.5,29.74,South,180,2.0,3.1,81,0.00,,,0.00,WUHU21623XXSP,2013-07-06 16:30:00,
2013-07-06 09:36:00,61.5,55.7,29.74,SSW,202,0.0,2.2,81,0.00,,,0.00,WUHU21623XXSP,2013-07-06 16:36:00,
2013-07-06 09:41:00,61.7,55.5,29.73,SSE,157,2.0,2.0,80,0.00,,,0.00,WUHU21623XXSP,2013-07-06 16:41:00,
2013-07-06 09:46:00,61.9,55.7,29.74,ESE,112,0.9,2.0,80,0.00,,,0.00,WUHU21623XXSP,2013-07-06 16:46:00,
2013-07-06 09:52:00,62.1,55.5,29.73,West,270,0.9,1.8,79,0.00,,,0.00,WUHU21623XXSP,2013-07-06 16:52:00,
2013-07-06 09:57:00,62.2,55.3,29.73,West,270,1.1,3.8,78,0.00,,,0.00,WUHU21623XXSP,2013-07-06 16:57:00,
2013-07-06 10:02:00,62.4,55.1,29.73,NW,315,2.9,3.8,77,0.00,,,0.00,WUHU21623XXSP,2013-07-06 17:02:00,
2013-07-06 10:07:00,62.4,55.1,29.73,NE,45,0.0,3.8,77,0.00,,,0.00,WUHU21623XXSP,2013-07-06 17:07:00,
2013-07-06 10:12:00,62.6,55.2,29.74,South,180,2.2,2.2,77,0.00,,,0.00,WUHU21623XXSP,2013-07-06 17:12:00,
2013-07-06 10:17:00,63.0,55.2,29.74,South,180,1.6,2.2,76,0.00,,,0.00,WUHU21623XXSP,2013-07-06 17:17:00,
2013-07-06 10:22:00,63.1,55.4,29.74,WNW,292,2.2,2.2,76,0.00,,,0.00,WUHU21623XXSP,2013-07-06 17:22:00,
2013-07-06 10:27:00,63.5,55.4,29.74,South,180,2.9,2.9,75,0.00,,,0.00,WUHU21623XXSP,2013-07-06 17:27:00,
2013-07-06 10:32:00,64.0,55.2,29.73,WSW,247,0.0,4.0,73,0.00,,,0.00,WUHU21623XXSP,2013-07-06 17:32:00,
2013-07-06 10:37:00,64.2,55.4,29.73,WNW,292,1.3,4.0,73,0.00,,,0.00,WUHU21623XXSP,2013-07-06 17:37:00,
2013-07-06 10:42:00,64.6,55.7,29.74,SW,225,1.8,2.5,73,0.00,,,0.00,WUHU21623XXSP,2013-07-06 17:42:00,
2013-07-06 10:48:00,65.1,55.5,29.74,SSE,157,1.1,2.7,71,0.00,,,0.00,WUHU21623XXSP,2013-07-06 17:48:00,
2013-07-06 10:53:00,65.5,55.5,29.73,SSW,202,3.1,3.1,70,0.00,,,0.00,WUHU21623XXSP,2013-07-06 17:53:00,
2013-07-06 10:58:00,65.8,55.4,29.73,NE,45,0.0,3.1,69,0.00,,,0.00,WUHU21623XXSP,2013-07-06 17:58:00,
2013-07-06 11:03:00,66.4,55.5,29.74,WSW,247,4.7,4.7,68,0.00,,,0.00,WUHU21623XXSP,2013-07-06 18:03:00,
2013-07-06 11:08:00,66.4,55.0,29.73,West,270,1.6,4.7,67,0.00,,,0.00,WUHU21623XXSP,2013-07-06 18:08:00,
2013-07-06 11:13:00,66.7,55.0,29.73,West,270,1.8,4.0,66,0.00,,,0.00,WUHU21623XXSP,2013-07-06 18:13:00,
2013-07-06 11:18:00,67.1,54.9,29.73,SSW,202,2.9,4.0,65,0.00,,,0.00,WUHU21623XXSP,2013-07-06 18:18:00,
2013-07-06 11:23:00,67.6,55.0,29.73,West,270,0.0,2.9,64,0.00,,,0.00,WUHU21623XXSP,2013-07-06 18:23:00,
2013-07-06 11:28:00,67.8,54.7,29.73,WSW,247,0.0,8.1,63,0.00,,,0.00,WUHU21623XXSP,2013-07-06 18:28:00,
2013-07-06 11:34:00,68.0,54.7,29.73,South,180,2.0,8.1,63,0.00,,,0.00,WUHU21623XXSP,2013-07-06 18:34:00,
2013-07-06 11:39:00,68.5,55.0,29.73,WNW,292,2.2,3.8,62,0.00,,,0.00,WUHU21623XXSP,2013-07-06 18:39:00,
2013-07-06 11:44:00,68.7,54.7,29.73,WNW,292,1.3,2.2,61,0.00,,,0.00,WUHU21623XXSP,2013-07-06 18:44:00,
2013-07-06 11:50:00,69.1,55.1,29.72,SSE,157,4.0,5.1,61,0.00,,,0.00,WUHU21623XXSP,2013-07-06 18:50:00,
2013-07-06 11:55:00,69.4,55.5,29.73,SW,225,0.0,4.5,61,0.00,,,0.00,WUHU21623XXSP,2013-07-06 18:55:00,
2013-07-06 12:00:00,69.6,55.2,29.73,WSW,247,2.2,4.5,60,0.00,,,0.00,WUHU21623XXSP,2013-07-06 19:00:00,
2013-07-06 12:06:00,70.2,55.2,29.72,SW,225,1.3,4.7,59,0.00,,,0.00,WUHU21623XXSP,2013-07-06 19:06:00,
2013-07-06 12:11:00,70.7,55.7,29.72,WNW,292,2.0,4.7,59,0.00,,,0.00,WUHU21623XXSP,2013-07-06 19:11:00,
2013-07-06 12:16:00,71.1,55.4,29.72,SSE,157,4.5,4.5,58,0.00,,,0.00,WUHU21623XXSP,2013-07-06 19:16:00,
2013-07-06 12:21:00,71.4,55.3,29.72,East,90,1.1,4.5,57,0.00,,,0.00,WUHU21623XXSP,2013-07-06 19:21:00,
2013-07-06 12:26:00,72.0,55.3,29.72,SW,225,1.6,2.2,56,0.00,,,0.00,WUHU21623XXSP,2013-07-06 19:26:00,
2013-07-06 12:31:00,72.3,55.1,29.72,WNW,292,4.9,4.9,55,0.00,,,0.00,WUHU21623XXSP,2013-07-06 19:31:00,
2013-07-06 12:36:00,72.3,55.1,29.72,WSW,247,1.1,4.9,55,0.00,,,0.00,WUHU21623XXSP,2013-07-06 19:36:00,
2013-07-06 12:41:00,72.5,55.3,29.72,WNW,292,0.0,4.9,55,0.00,,,0.00,WUHU21623XXSP,2013-07-06 19:41:00,
2013-07-06 12:46:00,72.9,55.6,29.72,NW,315,1.8,1.8,55,0.00,,,0.00,WUHU21623XXSP,2013-07-06 19:46:00,
2013-07-06 12:52:00,73.2,55.5,29.72,SW,225,4.0,4.0,54,0.00,,,0.00,WUHU21623XXSP,2013-07-06 19:52:00,
2013-07-06 12:57:00,73.6,55.8,29.71,SSE,157,1.1,4.0,54,0.00,,,0.00,WUHU21623XXSP,2013-07-06 19:57:00,
2013-07-06 13:02:00,73.9,55.7,29.71,South,180,1.6,4.3,53,0.00,,,0.00,WUHU21623XXSP,2013-07-06 20:02:00,
2013-07-06 13:07:00,74.1,55.8,29.71,South,180,0.9,4.3,53,0.00,,,0.00,WUHU21623XXSP,2013-07-06 20:07:00,
2013-07-06 13:12:00,74.3,56.0,29.72,ESE,112,5.1,5.1,53,0.00,,,0.00,WUHU21623XXSP,2013-07-06 20:12:00,
2013-07-06 13:18:00,74.5,55.7,29.71,NW,315,6.0,6.0,52,0.00,,,0.00,WUHU21623XXSP,2013-07-06 20:18:00,
2013-07-06 13:23:00,74.7,55.4,29.71,West,270,2.0,6.0,51,0.00,,,0.00,WUHU21623XXSP,2013-07-06 20:23:00,
2013-07-06 13:28:00,74.8,55.5,29.71,West,270,0.9,4.9,51,0.00,,,0.00,WUHU21623XXSP,2013-07-06 20:28:00,
2013-07-06 13:33:00,75.0,55.7,29.71,WNW,292,2.7,4.9,51,0.00,,,0.00,WUHU21623XXSP,2013-07-06 20:33:00,
2013-07-06 13:38:00,74.8,55.5,29.71,West,270,3.1,3.6,51,0.00,,,0.00,WUHU21623XXSP,2013-07-06 20:38:00,
2013-07-06 13:43:00,75.0,55.2,29.70,South,180,2.9,3.6,50,0.00,,,0.00,WUHU21623XXSP,2013-07-06 20:43:00,
2013-07-06 13:48:00,75.0,55.2,29.70,SSE,157,5.4,5.4,50,0.00,,,0.00,WUHU21623XXSP,2013-07-06 20:48:00,
2013-07-06 13:53:00,75.6,55.1,29.70,SSW,202,2.9,5.4,49,0.00,,,0.00,WUHU21623XXSP,2013-07-06 20:53:00,
2013-07-06 13:59:00,75.9,55.4,29.70,South,180,3.8,3.8,49,0.00,,,0.00,WUHU21623XXSP,2013-07-06 20:59:00,
2013-07-06 14:04:00,76.1,55.0,29.70,South,180,3.1,3.8,48,0.00,,,0.00,WUHU21623XXSP,2013-07-06 21:04:00,
2013-07-06 14:09:00,76.6,55.5,29.70,WSW,247,0.0,4.3,48,0.00,,,0.00,WUHU21623XXSP,2013-07-06 21:09:00,
2013-07-06 14:15:00,76.6,55.5,29.70,NE,45,1.3,2.9,48,0.00,,,0.00,WUHU21623XXSP,2013-07-06 21:15:00,
2013-07-06 14:20:00,76.8,55.0,29.69,South,180,4.0,4.0,47,0.00,,,0.00,WUHU21623XXSP,2013-07-06 21:20:00,
2013-07-06 14:25:00,76.8,55.0,29.70,West,270,0.0,4.0,47,0.00,,,0.00,WUHU21623XXSP,2013-07-06 21:25:00,
2013-07-06 14:31:00,76.8,55.0,29.69,SSE,157,1.8,4.9,47,0.00,,,0.00,WUHU21623XXSP,2013-07-06 21:31:00,
2013-07-06 14:36:00,76.8,55.0,29.69,WSW,247,5.1,5.1,47,0.00,,,0.00,WUHU21623XXSP,2013-07-06 21:36:00,
2013-07-06 14:41:00,76.8,55.0,29.69,West,270,0.0,5.1,47,0.00,,,0.00,WUHU21623XXSP,2013-07-06 21:41:00,
2013-07-06 14:46:00,76.8,55.0,29.69,WNW,292,0.0,6.5,47,0.00,,,0.00,WUHU21623XXSP,2013-07-06 21:46:00,
2013-07-06 14:51:00,76.8,55.0,29.69,West,270,4.0,6.5,47,0.00,,,0.00,WUHU21623XXSP,2013-07-06 21:51:00,
2013-07-06 14:56:00,76.8,55.0,29.69,South,180,5.4,5.4,47,0.00,,,0.00,WUHU21623XXSP,2013-07-06 21:56:00,
2013-07-06 15:01:00,76.8,55.0,29.69,West,270,3.6,5.4,47,0.00,,,0.00,WUHU21623XXSP,2013-07-06 22:01:00,
2013-07-06 15:07:00,77.0,55.2,29.69,WSW,247,4.7,4.7,47,0.00,,,0.00,WUHU21623XXSP,2013-07-06 22:07:00,
2013-07-06 15:12:00,77.2,54.7,29.69,NW,315,1.6,6.0,46,0.00,,,0.00,WUHU21623XXSP,2013-07-06 22:12:00,
2013-07-06 15:17:00,77.4,54.9,29.68,SSW,202,1.8,6.0,46,0.00,,,0.00,WUHU21623XXSP,2013-07-06 22:17:00,
2013-07-06 15:22:00,77.4,54.9,29.68,SSE,157,2.7,4.5,46,0.00,,,0.00,WUHU21623XXSP,2013-07-06 22:22:00,
2013-07-06 15:27:00,77.4,54.3,29.69,ESE,112,0.0,4.5,45,0.00,,,0.00,WUHU21623XXSP,2013-07-06 22:27:00,
2013-07-06 15:32:00,77.4,54.3,29.69,SW,225,4.5,4.5,45,0.00,,,0.00,WUHU21623XXSP,2013-07-06 22:32:00,
2013-07-06 15:38:00,77.4,54.3,29.69,SSE,157,3.1,4.5,45,0.00,,,0.00,WUHU21623XXSP,2013-07-06 22:38:00,
2013-07-06 15:43:00,77.4,54.3,29.68,SSW,202,2.9,3.1,45,0.00,,,0.00,WUHU21623XXSP,2013-07-06 22:43:00,
2013-07-06 15:48:00,77.5,54.4,29.69,SW,225,2.0,2.9,45,0.00,,,0.00,WUHU21623XXSP,2013-07-06 22:48:00,
2013-07-06 15:53:00,77.5,54.4,29.68,South,180,2.5,5.1,45,0.00,,,0.00,WUHU21623XXSP,2013-07-06 22:53:00,
2013-07-06 15:58:00,77.7,54.6,29.69,South,180,2.0,5.1,45,0.00,,,0.00,WUHU21623XXSP,2013-07-06 22:58:00,
2013-07-06 16:03:00,77.7,54.6,29.68,NW,315,1.6,7.2,45,0.00,,,0.00,WUHU21623XXSP,2013-07-06 23:03:00,
2013-07-06 16:08:00,77.7,54.0,29.68,South,180,8.3,8.3,44,0.00,,,0.00,WUHU21623XXSP,2013-07-06 23:08:00,
2013-07-06 16:13:00,77.9,54.2,29.68,WNW,292,0.0,8.3,44,0.00,,,0.00,WUHU21623XXSP,2013-07-06 23:13:00,
2013-07-06 16:18:00,78.1,54.3,29.68,WSW,247,1.3,2.9,44,0.00,,,0.00,WUHU21623XXSP,2013-07-06 23:18:00,
2013-07-06 16:23:00,78.1,54.3,29.67,WNW,292,5.1,7.4,44,0.00,,,0.00,WUHU21623XXSP,2013-07-06 23:23:00,
2013-07-06 16:29:00,78.1,54.3,29.68,SSW,202,4.0,7.4,44,0.00,,,0.00,WUHU21623XXSP,2013-07-06 23:29:00,
2013-07-06 16:34:00,78.4,54.6,29.68,South,180,8.1,8.1,44,0.00,,,0.00,WUHU21623XXSP,2013-07-06 23:34:00,
2013-07-06 16:39:00,78.6,54.8,29.68,South,180,4.0,8.1,44,0.00,,,0.00,WUHU21623XXSP,2013-07-06 23:39:00,
2013-07-06 16:44:00,79.0,54.5,29.68,SSW,202,1.1,4.0,43,0.00,,,0.00,WUHU21623XXSP,2013-07-06 23:44:00,
2013-07-06 16:49:00,79.3,54.8,29.67,WSW,247,3.1,3.1,43,0.00,,,0.00,WUHU21623XXSP,2013-07-06 23:49:00,
2013-07-06 16:54:00,79.7,55.2,29.67,South,180,6.9,6.9,43,0.00,,,0.00,WUHU21623XXSP,2013-07-06 23:54:00,
2013-07-06 16:59:00,79.7,54.6,29.67,South,180,4.9,6.9,42,0.00,,,0.00,WUHU21623XXSP,2013-07-06 23:59:00,
2013-07-06 17:05:00,79.9,54.7,29.67,East,90,0.9,4.9,42,0.00,,,0.00,WUHU21623XXSP,2013-07-07 00:05:00,
2013-07-06 17:10:00,80.2,54.4,29.67,WNW,292,1.8,2.5,41,0.00,,,0.00,WUHU21623XXSP,2013-07-07 00:10:00,
2013-07-06 17:16:00,80.2,54.4,29.67,South,180,4.0,4.0,41,0.00,,,0.00,WUHU21623XXSP,2013-07-07 00:16:00,
2013-07-06 17:22:00,81.0,55.7,29.67,SSE,157,2.0,4.0,42,0.00,,,0.00,WUHU21623XXSP,2013-07-07 00:22:00,
2013-07-06 17:27:00,81.7,55.7,29.67,ESE,112,3.4,3.4,41,0.00,,,0.00,WUHU21623XXSP,2013-07-07 00:27:00,
2013-07-06 17:33:00,82.0,55.4,29.67,SE,135,2.0,3.4,40,0.00,,,0.00,WUHU21623XXSP,2013-07-07 00:33:00,
2013-07-06 17:38:00,82.0,54.6,29.67,SSE,157,0.0,2.5,39,0.00,,,0.00,WUHU21623XXSP,2013-07-07 00:38:00,
2013-07-06 17:43:00,81.7,54.3,29.67,South,180,2.9,2.9,40,0.00,,,0.00,WUHU21623XXSP,2013-07-07 00:43:00,
2013-07-06 17:48:00,81.7,54.3,29.67,SSW,202,2.9,2.9,39,0.00,,,0.00,WUHU21623XXSP,2013-07-07 00:48:00,
2013-07-06 17:53:00,81.7,54.3,29.67,East,90,0.0,3.6,39,0.00,,,0.00,WUHU21623XXSP,2013-07-07 00:53:00,
2013-07-06 17:58:00,81.5,54.2,29.67,South,180,5.6,5.6,39,0.00,,,0.00,WUHU21623XXSP,2013-07-07 00:58:00,
2013-07-06 18:04:00,81.1,54.0,29.67,SSE,157,2.5,5.6,39,0.00,,,0.00,WUHU21623XXSP,2013-07-07 01:04:00,
2013-07-06 18:09:00,80.8,53.5,29.67,SW,225,3.8,3.8,39,0.00,,,0.00,WUHU21623XXSP,2013-07-07 01:09:00,
2013-07-06 18:14:00,80.8,53.5,29.67,South,180,1.1,3.8,39,0.00,,,0.00,WUHU21623XXSP,2013-07-07 01:14:00,
2013-07-06 18:19:00,80.8,53.5,29.66,SSW,202,3.1,3.1,39,0.00,,,0.00,WUHU21623XXSP,2013-07-07 01:19:00,
2013-07-06 18:24:00,80.8,53.5,29.67,SSE,157,2.5,3.1,39,0.00,,,0.00,WUHU21623XXSP,2013-07-07 01:24:00,
2013-07-06 18:29:00,80.4,53.2,29.67,South,180,2.0,3.4,39,0.00,,,0.00,WUHU21623XXSP,2013-07-07 01:29:00,
2013-07-06 18:34:00,80.4,53.2,29.67,West,270,0.7,3.4,39,0.00,,,0.00,WUHU21623XXSP,2013-07-07 01:34:00,
2013-07-06 18:39:00,80.1,52.1,29.67,SSE,157,3.8,3.8,38,0.00,,,0.00,WUHU21623XXSP,2013-07-07 01:39:00,
2013-07-06 18:44:00,79.3,52.2,29.67,East,90,0.9,3.8,39,0.00,,,0.00,WUHU21623XXSP,2013-07-07 01:44:00,
2013-07-06 18:49:00,79.0,51.3,29.67,SW,225,0.9,2.9,39,0.00,,,0.00,WUHU21623XXSP,2013-07-07 01:49:00,
2013-07-06 18:54:00,78.4,51.4,29.67,South,180,3.1,3.1,39,0.00,,,0.00,WUHU21623XXSP,2013-07-07 01:54:00,
2013-07-06 19:00:00,77.9,51.7,29.67,South,180,0.9,3.1,40,0.00,,,0.00,WUHU21623XXSP,2013-07-07 02:00:00,
2013-07-06 19:05:00,77.7,51.5,29.67,South,180,5.1,5.1,40,0.00,,,0.00,WUHU21623XXSP,2013-07-07 02:05:00,
2013-07-06 19:10:00,77.4,51.2,29.67,West,270,0.7,5.1,40,0.00,,,0.00,WUHU21623XXSP,2013-07-07 02:10:00,
2013-07-06 19:15:00,76.8,51.1,29.67,SSE,157,0.0,5.1,40,0.00,,,0.00,WUHU21623XXSP,2013-07-07 02:15:00,
2013-07-06 19:20:00,76.5,50.4,29.67,SW,225,1.6,2.9,40,0.00,,,0.00,WUHU21623XXSP,2013-07-07 02:20:00,
2013-07-06 19:25:00,75.9,49.9,29.67,South,180,2.5,2.5,40,0.00,,,0.00,WUHU21623XXSP,2013-07-07 02:25:00,
2013-07-06 19:30:00,75.6,50.2,29.67,SSE,157,2.0,2.5,41,0.00,,,0.00,WUHU21623XXSP,2013-07-07 02:30:00,
2013-07-06 19:36:00,74.7,49.4,29.67,South,180,3.8,3.8,41,0.00,,,0.00,WUHU21623XXSP,2013-07-07 02:36:00,
2013-07-06 19:41:00,73.9,48.7,29.68,ESE,112,1.3,3.8,41,0.00,,,0.00,WUHU21623XXSP,2013-07-07 02:41:00,
2013-07-06 19:46:00,73.2,48.1,29.68,SSE,157,1.6,2.2,41,0.00,,,0.00,WUHU21623XXSP,2013-07-07 02:46:00,
2013-07-06 19:51:00,72.7,48.2,29.68,South,180,2.9,2.9,42,0.00,,,0.00,WUHU21623XXSP,2013-07-07 02:51:00,
2013-07-06 19:56:00,72.1,47.7,29.68,SE,135,1.6,2.9,42,0.00,,,0.00,WUHU21623XXSP,2013-07-07 02:56:00,
2013-07-06 20:01:00,71.6,47.8,29.68,East,90,1.6,2.0,43,0.00,,,0.00,WUHU21623XXSP,2013-07-07 03:01:00,
2013-07-06 20:06:00,70.7,47.0,29.68,SW,225,1.8,2.9,43,0.00,,,0.00,WUHU21623XXSP,2013-07-07 03:06:00,
2013-07-06 20:11:00,70.2,47.1,29.68,South,180,4.9,4.9,44,0.00,,,0.00,WUHU21623XXSP,2013-07-07 03:11:00,
2013-07-06 20:17:00,69.6,46.6,29.68,South,180,1.1,4.9,44,0.00,,,0.00,WUHU21623XXSP,2013-07-07 03:17:00,
2013-07-06 20:22:00,69.1,46.7,29.68,South,180,1.1,2.9,45,0.00,,,0.00,WUHU21623XXSP,2013-07-07 03:22:00,
2013-07-06 20:27:00,68.5,46.9,29.68,WNW,292,0.0,2.9,46,0.00,,,0.00,WUHU21623XXSP,2013-07-07 03:27:00,
2013-07-06 20:32:00,68.4,47.3,29.68,South,180,0.0,0.0,47,0.00,,,0.00,WUHU21623XXSP,2013-07-07 03:32:00,
2013-07-06 20:37:00,68.2,47.1,29.68,SE,135,1.8,1.8,47,0.00,,,0.00,WUHU21623XXSP,2013-07-07 03:37:00,
2013-07-06 20:42:00,67.6,47.2,29.69,SSE,157,3.8,3.8,48,0.00,,,0.00,WUHU21623XXSP,2013-07-07 03:42:00,
2013-07-06 20:47:00,67.5,47.1,29.69,SE,135,0.0,3.8,48,0.00,,,0.00,WUHU21623XXSP,2013-07-07 03:47:00,
2013-07-06 20:52:00,67.1,46.7,29.69,ESE,112,1.1,3.1,48,0.00,,,0.00,WUHU21623XXSP,2013-07-07 03:52:00,
2013-07-06 20:57:00,66.7,47.0,29.69,WSW,247,3.4,3.4,49,0.00,,,0.00,WUHU21623XXSP,2013-07-07 03:57:00,
2013-07-06 21:02:00,66.4,46.7,29.69,WNW,292,0.0,3.4,49,0.00,,,0.00,WUHU21623XXSP,2013-07-07 04:02:00,
2013-07-06 21:07:00,66.0,46.9,29.69,SSW,202,0.0,3.4,50,0.00,,,0.00,WUHU21623XXSP,2013-07-07 04:07:00,
2013-07-06 21:12:00,65.8,46.8,29.70,WSW,247,0.9,1.3,50,0.00,,,0.00,WUHU21623XXSP,2013-07-07 04:12:00,
2013-07-06 21:17:00,65.5,47.4,29.70,NW,315,0.0,0.9,52,0.00,,,0.00,WUHU21623XXSP,2013-07-07 04:17:00,
2013-07-06 21:22:00,65.1,47.0,29.70,South,180,2.9,2.9,52,0.00,,,0.00,WUHU21623XXSP,2013-07-07 04:22:00,
2013-07-06 21:27:00,64.8,47.1,29.70,South,180,1.1,2.9,53,0.00,,,0.00,WUHU21623XXSP,2013-07-07 04:27:00,
2013-07-06 21:32:00,64.6,47.4,29.71,SW,225,0.0,2.7,54,0.00,,,0.00,WUHU21623XXSP,2013-07-07 04:32:00,
2013-07-06 21:37:00,64.0,47.4,29.71,ESE,112,0.0,0.0,56,0.00,,,0.00,WUHU21623XXSP,2013-07-07 04:37:00,
2013-07-06 21:42:00,63.7,47.6,29.71,South,180,1.1,1.1,56,0.00,,,0.00,WUHU21623XXSP,2013-07-07 04:42:00,
2013-07-06 21:48:00,63.3,47.3,29.71,SE,135,1.6,4.7,56,0.00,,,0.00,WUHU21623XXSP,2013-07-07 04:48:00,
2013-07-06 21:53:00,62.8,47.8,29.71,South,180,1.8,4.7,58,0.00,,,0.00,WUHU21623XXSP,2013-07-07 04:53:00,
2013-07-06 21:58:00,62.6,48.1,29.72,SSE,157,2.0,2.0,59,0.00,,,0.00,WUHU21623XXSP,2013-07-07 04:58:00,
2013-07-06 22:03:00,62.4,47.9,29.72,West,270,0.0,2.0,59,0.00,,,0.00,WUHU21623XXSP,2013-07-07 05:03:00,
2013-07-06 22:08:00,62.2,48.2,29.72,South,180,2.0,2.0,60,0.00,,,0.00,WUHU21623XXSP,2013-07-07 05:08:00,
2013-07-06 22:13:00,61.9,48.3,29.72,ESE,112,0.0,2.0,61,0.00,,,0.00,WUHU21623XXSP,2013-07-07 05:13:00,
2013-07-06 22:18:00,61.7,48.6,29.72,East,90,0.0,0.0,62,0.00,,,0.00,WUHU21623XXSP,2013-07-07 05:18:00,
2013-07-06 22:23:00,61.5,48.4,29.72,West,270,1.3,1.3,62,0.00,,,0.00,WUHU21623XXSP,2013-07-07 05:23:00,
2013-07-06 22:28:00,61.5,48.8,29.72,SSW,202,1.8,1.8,63,0.00,,,0.00,WUHU21623XXSP,2013-07-07 05:28:00,
2013-07-06 22:33:00,61.3,49.5,29.72,SSE,157,2.9,2.9,65,0.00,,,0.00,WUHU21623XXSP,2013-07-07 05:33:00,
2013-07-06 22:38:00,61.0,49.6,29.72,SSW,202,0.9,2.9,66,0.00,,,0.00,WUHU21623XXSP,2013-07-07 05:38:00,
2013-07-06 22:43:00,61.0,49.6,29.72,WNW,292,0.0,2.2,66,0.00,,,0.00,WUHU21623XXSP,2013-07-07 05:43:00,
2013-07-06 22:48:00,60.6,49.7,29.73,SSE,157,0.0,1.6,67,0.00,,,0.00,WUHU21623XXSP,2013-07-07 05:48:00,
2013-07-06 22:53:00,60.6,50.1,29.73,South,180,0.0,2.7,68,0.00,,,0.00,WUHU21623XXSP,2013-07-07 05:53:00,
2013-07-06 22:58:00,60.4,49.9,29.72,WSW,247,0.0,2.7,68,0.00,,,0.00,WUHU21623XXSP,2013-07-07 05:58:00,
2013-07-06 23:03:00,60.4,50.3,29.72,West,270,0.0,0.9,69,0.00,,,0.00,WUHU21623XXSP,2013-07-07 06:03:00,
2013-07-06 23:08:00,60.1,50.4,29.73,WNW,292,0.0,0.0,71,0.00,,,0.00,WUHU21623XXSP,2013-07-07 06:08:00,
2013-07-06 23:13:00,60.1,50.7,29.73,SE,135,0.0,0.0,71,0.00,,,0.00,WUHU21623XXSP,2013-07-07 06:13:00,
2013-07-06 23:18:00,59.9,51.1,29.73,SE,135,0.0,0.0,72,0.00,,,0.00,WUHU21623XXSP,2013-07-07 06:18:00,
2013-07-06 23:23:00,59.9,50.9,29.73,East,90,0.0,0.0,74,0.00,,,0.00,WUHU21623XXSP,2013-07-07 06:23:00,
2013-07-06 23:28:00,59.7,51.4,29.73,SSE,157,0.0,0.0,74,0.00,,,0.00,WUHU21623XXSP,2013-07-07 06:28:00,
2013-07-06 23:33:00,59.5,51.6,29.73,SSE,157,0.0,0.0,75,0.00,,,0.00,WUHU21623XXSP,2013-07-07 06:33:00,
2013-07-06 23:38:00,59.5,52.3,29.73,ESE,112,0.0,1.1,77,0.00,,,0.00,WUHU21623XXSP,2013-07-07 06:38:00,
2013-07-06 23:43:00,59.2,52.7,29.72,SE,135,0.9,1.1,79,0.00,,,0.00,WUHU21623XXSP,2013-07-07 06:43:00,
2013-07-06 23:48:00,59.2,52.3,29.73,SW,225,1.3,1.6,78,0.00,,,0.00,WUHU21623XXSP,2013-07-07 06:48:00,
2013-07-06 23:53:00,59.2,52.7,29.73,South,180,0.0,1.6,79,0.00,,,0.00,WUHU21623XXSP,2013-07-07 06:53:00,
2013-07-06 23:58:00,59.0,52.9,29.73,SW,225,0.0,1.3,80,0.00,,,0.00,WUHU21623XXSP,2013-07-07 06:58:00,